Location: Coopersdale
(40.3556°N, 78.9372°W)
Time: 01:45:47
(UTC+00:00)

Transit 4A - Pass Details

Date: 30 January 2021
Orbit: 867 x 978 km, 66.8° (Epoch: 07 March)

Event Time Altitude Azimuth Distance (km) Brightness Sun altitude
Rises 01:23:21 0° 276° (W) 3,675 12.1 -32.9°
Reaches altitude 10° 01:28:10 10° 308° (NW) 2,724 10.9 -33.8°
Maximum altitude 01:30:14 12° 328° (NNW) 2,604 10.6 -34.2°
Drops below altitude 10° 01:32:18 10° 347° (NNW) 2,713 10.5 -34.6°
Enters shadow 01:34:00 - 1° (N) 2,957 10.6 -35.0°
Sets 01:37:05 0° 19° (NNE) 3,641 - -35.5°
